Weather History for KWWD - April, 2013

Change the Weather History Date:

Wednesday, April 10, 2013

  Actual Average Record
Temperature  
Mean Temperature 73 °F -  
Max Temperature 86 °F 57 °F 86 °F (2013)
Min Temperature 60 °F 42 °F 30 °F (1997)
Cooling Degree Days 8    
Growing Degree Days 23 (Base 50)    
Moisture  
Dew Point 54 °F    
Average Humidity 54    
Maximum Humidity 72    
Minimum Humidity 37    
Precipitation  
Precipitation 0.00 in - - ()
Sea Level Pressure  
Sea Level Pressure 29.90 in    
Wind  
Wind Speed 11 mph (SSW)    
Max Wind Speed 15 mph    
Max Gust Speed 24 mph    
Averages and records for this station are not official NWS values.
T = Trace of Precipitation, MM = Missing Value Source: NWS Daily Summary

Daily Weather History Graph

Daily Weather History Graph

Search for Another Location

Airport or City:

Trip Planner

Search our weather history database for the weather conditions in past years. The results will help you decide how hot, cold, wet, or windy it might be!

Date:

Astronomy

Apr. 10, 2013 Rise Set
Actual Time 6:30 AM EDT 7:32 PM EDT
Civil Twilight 6:02 AM EDT 7:59 PM EDT
Nautical Twilight 5:30 AM EDT 8:32 PM EDT
Astronomical Twilight 4:56 AM EDT 9:06 PM EDT
Moon 6:25 AM EDT (4/10) 8:05 PM EDT (4/10)
Length of Visible Light 13h 56m
Length of Day
13h 02m
New Moon, 0% of the Moon is Illuminated
Apr 10
New Moon
Apr 18
First Quarter
Apr 25
Full
May 2
Last Quarter
May 9
New

Hourly Weather History & Observations

Time (EDT) Temp. Heat Index Dew Point Humidity Pressure Visibility Wind Dir Wind Speed Gust Speed Precip Events Conditions
12:15 AM 62.6 °F - 50.0 °F 63% 29.96 in - South 10.4 mph - N/A   Clear
12:35 AM 60.8 °F - 50.0 °F 68% 29.96 in - South 11.5 mph - N/A   Clear
12:55 AM 60.8 °F - 50.0 °F 68% 29.96 in - SSW 8.1 mph - N/A   Clear
1:15 AM 60.8 °F - 51.8 °F 72% 29.96 in - SSW 9.2 mph - N/A   Clear
1:35 AM 62.6 °F - 51.8 °F 68% 29.94 in - SSW 10.4 mph 16.1 mph N/A   Clear
1:55 AM 62.6 °F - 51.8 °F 68% 29.93 in - SSW 11.5 mph - N/A   Clear
2:15 AM 62.6 °F - 51.8 °F 68% 29.93 in - SSW 11.5 mph - N/A   Clear
2:35 AM 64.4 °F - 51.8 °F 64% 29.92 in - SSW 11.5 mph - N/A   Clear
2:55 AM 64.4 °F - 51.8 °F 64% 29.91 in - SSW 11.5 mph - N/A   Clear
3:15 AM 64.4 °F - 51.8 °F 64% 29.91 in - SSW 10.4 mph - N/A   Clear
3:35 AM 64.4 °F - 51.8 °F 64% 29.91 in - SSW 11.5 mph - N/A   Clear
3:55 AM 64.4 °F - 51.8 °F 64% 29.91 in - SSW 10.4 mph - N/A   Clear
4:15 AM 66.2 °F - 53.6 °F 64% 29.91 in - SW 13.8 mph - N/A   Clear
4:35 AM 66.2 °F - 53.6 °F 64% 29.91 in - SW 11.5 mph 18.4 mph N/A   Clear
4:55 AM 66.2 °F - 53.6 °F 64% 29.92 in - SW 11.5 mph - N/A   Clear
5:15 AM 66.2 °F - 53.6 °F 64% 29.93 in - WSW 10.4 mph 16.1 mph N/A   Clear
5:35 AM 64.4 °F - 51.8 °F 64% 29.93 in - WSW 11.5 mph - N/A   Clear
5:55 AM 64.4 °F - 53.6 °F 68% 29.93 in - WSW 13.8 mph - N/A   Clear
6:15 AM 64.4 °F - 53.6 °F 68% 29.94 in - WSW 13.8 mph - N/A   Clear
6:35 AM 64.4 °F - 53.6 °F 68% 29.94 in - WSW 12.7 mph - N/A   Clear
6:55 AM 64.4 °F - 53.6 °F 68% 29.95 in - WSW 11.5 mph - N/A   Clear
7:15 AM 66.2 °F - 53.6 °F 64% 29.95 in - WSW 11.5 mph - N/A   Clear
7:35 AM 66.2 °F - 53.6 °F 64% 29.92 in - WSW 11.5 mph - N/A   Clear
7:55 AM 66.2 °F - 53.6 °F 64% - - WSW 11.5 mph - N/A   Clear
8:15 AM 68.0 °F - 53.6 °F 60% - - WSW 11.5 mph - N/A   Clear
8:35 AM 69.8 °F - 53.6 °F 56% - - WSW 10.4 mph - N/A   Clear
8:55 AM 69.8 °F - 53.6 °F 56% - - WSW 11.5 mph 16.1 mph N/A   Clear
9:15 AM 71.6 °F - 53.6 °F 53% - - WSW 11.5 mph - N/A   Clear
9:35 AM 73.4 °F - 53.6 °F 50% - - WSW 11.5 mph - N/A   Clear
9:55 AM 73.4 °F - 55.4 °F 53% - - WSW 12.7 mph - N/A   Clear
10:15 AM 75.2 °F - 55.4 °F 50% - - West 10.4 mph 16.1 mph N/A   Clear
10:35 AM 77.0 °F - 55.4 °F 47% 29.95 in - WSW 12.7 mph - N/A   Clear
10:55 AM 78.8 °F - 55.4 °F 44% 29.95 in - West 11.5 mph - N/A   Clear
11:15 AM 80.6 °F 80.5 °F 55.4 °F 42% 29.95 in - West 11.5 mph - N/A   Clear
11:35 AM 80.6 °F 80.5 °F 55.4 °F 42% 29.94 in - WSW 10.4 mph - N/A   Clear
11:55 AM 82.4 °F 81.7 °F 55.4 °F 39% 29.95 in - WSW 11.5 mph - N/A   Clear
12:15 PM 82.4 °F 81.7 °F 55.4 °F 39% 29.95 in - WSW 12.7 mph 18.4 mph N/A   Clear
12:35 PM 82.4 °F 81.7 °F 55.4 °F 39% 29.94 in - WSW 10.4 mph - N/A   Clear
1:15 PM 84.2 °F 83.0 °F 55.4 °F 37% 29.94 in - West 11.5 mph - N/A   Clear
1:35 PM 84.2 °F 83.0 °F 55.4 °F 37% 29.94 in - West 11.5 mph - N/A   Clear
2:15 PM 84.2 °F 83.5 °F 57.2 °F 40% 29.92 in - WSW 10.4 mph - N/A   Clear
2:35 PM 86.0 °F 84.9 °F 57.2 °F 37% 29.92 in - SW 10.4 mph - N/A   Clear
2:55 PM 86.0 °F 84.9 °F 57.2 °F 37% 29.91 in - South 9.2 mph - N/A   Clear
3:15 PM 86.0 °F 84.9 °F 57.2 °F 37% 29.90 in - SSW 6.9 mph - N/A   Clear
3:35 PM 84.2 °F 83.5 °F 57.2 °F 40% 29.89 in - SSE 12.7 mph - N/A   Clear
3:55 PM 84.2 °F 83.5 °F 57.2 °F 40% 29.89 in - SSE 11.5 mph - N/A   Clear
4:15 PM 84.2 °F 83.5 °F 57.2 °F 40% 29.88 in - South 8.1 mph - N/A   Clear
4:35 PM 84.2 °F 83.5 °F 57.2 °F 40% 29.88 in - SSE 10.4 mph - N/A   Clear
4:55 PM 80.6 °F 80.5 °F 55.4 °F 42% 29.88 in - South 9.2 mph - N/A   Clear
5:15 PM 78.8 °F - 53.6 °F 42% 29.88 in - South 9.2 mph - N/A   Clear
5:35 PM 77.0 °F - 53.6 °F 44% 29.87 in - South 6.9 mph - N/A   Clear
5:55 PM 77.0 °F - 53.6 °F 44% 29.87 in - SSW 8.1 mph - N/A   Clear
6:15 PM 75.2 °F - 53.6 °F 47% 29.86 in - SSE 9.2 mph - N/A   Clear
6:35 PM 73.4 °F - 53.6 °F 50% 29.85 in - SSE 5.8 mph - N/A   Clear
6:55 PM 71.6 °F - 51.8 °F 50% 29.84 in - South 10.4 mph - N/A   Clear
7:15 PM 71.6 °F - 53.6 °F 53% 29.83 in - South 10.4 mph - N/A   Clear
7:35 PM 73.4 °F - 53.6 °F 50% 29.82 in - South 13.8 mph - N/A   Clear
7:55 PM 73.4 °F - 53.6 °F 50% 29.83 in - South 12.7 mph - N/A   Clear
8:15 PM 73.4 °F - 53.6 °F 50% 29.82 in - SSW 15.0 mph - N/A   Clear
8:35 PM 73.4 °F - 53.6 °F 50% 29.82 in - SSW 12.7 mph - N/A   Clear
8:55 PM 73.4 °F - 53.6 °F 50% 29.83 in - South 13.8 mph - N/A   Clear
9:15 PM 71.6 °F - 53.6 °F 53% 29.84 in - South 11.5 mph - N/A   Clear
9:35 PM 69.8 °F - 53.6 °F 56% 29.84 in - South 12.7 mph - N/A   Clear
9:55 PM 69.8 °F - 53.6 °F 56% 29.83 in - SSW 12.7 mph 19.6 mph N/A   Clear
10:15 PM 69.8 °F - 55.4 °F 60% 29.83 in - SSW 10.4 mph - N/A   Clear
10:35 PM 69.8 °F - 55.4 °F 60% 29.84 in - SSW 12.7 mph - N/A   Clear
10:55 PM 69.8 °F - 55.4 °F 60% 29.82 in - South 11.5 mph 16.1 mph N/A   Clear
11:15 PM 68.0 °F - 53.6 °F 60% 29.83 in - SSW 10.4 mph - N/A   Clear
11:35 PM 66.2 °F - 53.6 °F 64% 29.84 in - SSW 9.2 mph - N/A   Clear
11:55 PM 69.8 °F - 55.4 °F 60% 29.90 in - North 10.4 mph 24.2 mph N/A   Mostly Cloudy